Flight Track Log - Related Links

Times and Time Zones

All times are in EDT time to prevent confusion due to time zone crossing. See the GGA1 flight status page for this flight to view local times or setup timezone preferences in your user account.

Time Position Orientation Groundspeed Altitude Reporting Facility
EDT Latitude Longitude Course Direction KTS MPH feet Rate Location/Type
Tue 03:14:46 PM 34.8908 -85.2011 165° South 205 236 5,700  Level Atlanta Center
Tue 03:15:46 PM 34.8303 -85.1900 171° South 218 251 7,100 1,650 Climbing Atlanta Center
Tue 03:16:46 PM 34.7764 -85.1642 159° South 218 251 9,000 1,650 Climbing Atlanta Center
Tue 03:17:46 PM 34.7475 -85.1031 120° Southeast 197 227 10,400 950 Climbing Atlanta Center
Tue 03:18:00 PM 34.8267 -84.8467 125° Southeast  Level FlightAware Approximate
Tue 03:18:46 PM 34.7169 -85.0319 118° Southeast 210 242 10,900  Level Atlanta Center
Tue 03:19:00 PM 34.7926 -84.7871 125° Southeast  Level FlightAware Approximate
Tue 03:19:46 PM 34.6819 -84.9506 118° Southeast 243 280 10,900  Level Atlanta Center
Tue 03:20:46 PM 34.6492 -84.8669 115° Southeast 261 300 11,000  Climbing Atlanta Center
Tue 03:21:46 PM 34.6122 -84.7883 120° Southeast 266 306 10,900 -50 Descending Atlanta Center
Tue 03:22:46 PM 34.5833 -84.7072 113° Southeast 266 306 10,900 50 Level Atlanta Center
Tue 03:23:46 PM 34.5608 -84.6214 108° East 261 300 11,000 50 Climbing Atlanta Center
Tue 03:24:46 PM 34.5364 -84.5281 108° East 261 300 11,000  Level Atlanta Center
Tue 03:25:46 PM 34.5117 -84.4422 109° East 266 306 11,000 -50 Level Atlanta Center
Tue 03:26:46 PM 34.4722 -84.3614 121° Southeast 271 312 10,900  Descending Atlanta Center
Tue 03:27:46 PM 34.4328 -84.2806 121° Southeast 276 318 11,000 -100 Climbing Atlanta Center
Tue 03:28:46 PM 34.3953 -84.2025 120° Southeast 276 318 10,700 -450 Descending Atlanta Center
Tue 03:29:46 PM 34.3536 -84.1219 122° Southeast 276 318 10,100 -850 Descending Atlanta Center
Tue 03:30:46 PM 34.3097 -84.0389 123° Southeast 276 318 9,000 -1,100 Descending Atlanta Center
Tue 03:31:46 PM 34.2722 -83.9608 120° Southeast 282 325 7,900 -1,350 Descending Atlanta Center
Tue 03:32:46 PM 34.2303 -83.8781 121° Southeast 287 330 6,300 -1,400 Descending Atlanta Center
Tue 03:33:46 PM 34.1947 -83.7978 118° Southeast 279 321 5,100 -900 Descending Atlanta Center
Tue 03:34:46 PM 34.1611 -83.7175 117° Southeast 265 305 4,500 -500 Descending Atlanta Center
Tue 03:35:46 PM 34.1297 -83.6397 116° Southeast 258 297 4,100 -500 Descending Atlanta Center
Tue 03:36:46 PM 34.0958 -83.5622 118° Southeast 258 297 3,500 1,450 Descending Atlanta Center
Tue 03:37:46 PM 34.0686 -83.4819 112° Southeast 258 297 7,000 -400 Climbing Atlanta Center
Tue 03:38:46 PM 34.0161 -83.4222 137° Southeast 258 297 2,700 -2,300 Descending Atlanta Center
Tue 03:39:46 PM 33.9717 -83.3450 125° Southeast 258 297 2,400 -300 Descending Atlanta Center
Tue 03:41:00 PM 33.9486 -83.3264 129° Southeast  Level Estimated
Tue 03:48:00 PM 33.9486 -83.3264 129° Southeast  Level Estimated
Tue 03:49:00 PM 33.9486 -83.3264 129° Southeast  Level Estimated
Tue 03:50:00 PM 33.9486 -83.3264 129° Southeast  Level Estimated

Login

Don't have an account? Register now (free) for customized features, flight alerts, and more!